Location: ??????
(56.0120°N, 39.1740°E)
Time: 12:03:26
(UTC+00:00)

Cosmos 1933 - Pass Details

Date: 14 April 2026
Orbit: 508 x 513 km, 82.5° (Epoch: 10 May)

Event Time Altitude Azimuth Distance (km) Brightness Sun altitude
Exits shadow 23:40:08 32° 272° (W) 901 4.1 -18.4°
Maximum altitude 23:40:41 34° 291° (WNW) 869 4.2 -18.4°
Drops below altitude 10° 23:44:11 10° 357° (N) 1,742 6.6 -18.1°
Sets 23:46:29 0° 7° (N) 2,632 7.8 -17.9°
